This demonstration page uses our WeatherBlox Daily Observations layout. Learn more.

Left ArrowRight Arrow

Hourly Observations for April 2, 2018

Temp ( °F °C ) Dew Point ( °F °C ) Humidity (%) Winds ( mph kmh ) Pressure ( in mb ) Visibility ( mi km ) Precip ( " mm )
12:53 am 00:53 Cloudy with Light Snow 33 0.6 33 0.6 100 100 Calm 30.12 1020 2 3 0.00 0.03
12:57 am 00:57 Cloudy with Light Snow 33 0.6 33 0.6 100 100 Calm 30.15 1021 3 5 0.00 0.03
1:12 am 01:12 Cloudy with Mist and Fog 33 0.6 33 0.6 100 100 Calm 30.12 1020 6 10 0.00 0.03
1:22 am 01:22 Cloudy 33 0.6 33 0.6 100 100 N 3 6 30.12 1020 7 11 0.01 0.25
1:33 am 01:33 Cloudy with Light Snow 34 1.1 33 0.6 97 97 N 5 7 30.12 1020 5 8 0.01 0.25
1:53 am 01:53 Cloudy with Light Snow 34 1.1 33 0.6 97 97 N 7 11 30.12 1020 8 13 0.01 0.25
2:05 am 02:05 Cloudy 34 1.1 33 0.6 97 97 N 6 9 30.12 1020 10 16 0.00 0.03
2:42 am 02:42 Cloudy 34 1.1 32 0 92 92 N 6 9 30.12 1020 10 16 0.00 0.03
2:53 am 02:53 Cloudy 34 1.1 32 0 92 92 N 5 7 30.11 1020 10 16 0.00 0.03
3:39 am 03:39 Cloudy 34 1.1 32 0 92 92 N 5 7 30.12 1020 10 16 0.00 0.00
3:53 am 03:53 Cloudy 34 1.1 32 0 92 92 NNE 6 9 30.09 1019 10 16 0.00 0.00
4:03 am 04:03 Cloudy 34 1.1 32 0 92 92 N 7 11 30.12 1020 10 16 0.00 0.00
4:49 am 04:49 Cloudy 34 1 34 1 100 100 N 7 11 30.12 1020 10 16 0.00 0.00
4:53 am 04:53 Cloudy 34 1.1 33 0.6 97 97 N 7 11 30.11 1020 10 16 0.00 0.00
5:53 am 05:53 Cloudy 33 0.6 33 0.6 100 100 N 6 9 30.13 1020 10 16 0.00 0.00
6:15 am 06:15 Cloudy 33 0.6 33 0.6 100 100 N 6 9 30.15 1021 10 16 0.00 0.00
6:53 am 06:53 Cloudy 32 0 32 0 100 100 N 7 11 30.14 1021 10 16 0.00 0.00
7:53 am 07:53 Cloudy 33 0.6 33 0.6 100 100 NE 7 11 30.16 1022 8 13 0.00 0.00
8:22 am 08:22 Cloudy 33 0.6 33 0.6 100 100 NNE 8 13 30.18 1022 9 14 0.00 0.00
8:53 am 08:53 Mostly Cloudy 33 0.6 33 0.6 100 100 E 8 13 30.17 1022 10 16 0.00 0.00
9:03 am 09:03 Mostly Cloudy 33 0.6 33 0.6 100 100 NE 6 9 30.18 1022 10 16 0.00 0.00
9:21 am 09:21 Mostly Cloudy 34 1.1 30 -1.1 85 85 NE 9 15 30.18 1022 10 16 0.00 0.00
9:31 am 09:31 Mostly Cloudy 33 0.6 30 -1.1 89 89 NE 8 13 30.18 1022 10 16 0.00 0.00
9:53 am 09:53 Cloudy 33 0.6 32 0 96 96 E 9 15 30.18 1022 10 16 0.00 0.00
10:05 am 10:05 Cloudy 34 1.1 33 0.6 97 97 ENE 8 13 30.18 1022 10 16 0.00 0.00
10:20 am 10:20 Cloudy 34 1.1 34 1.1 100 100 ESE 7 11 30.21 1023 10 16 0.00 0.00
10:53 am 10:53 Cloudy 35 1.7 35 1.7 100 100 E 9 15 30.18 1022 10 16 0.00 0.00
11:53 am 11:53 Cloudy 37 2.8 37 2.8 100 100 E 9 15 30.16 1022 10 16 0.00 0.00
12:53 pm 12:53 Cloudy 38 3.3 31 -0.6 76 76 E 8 13 30.16 1021 10 16 0.00 0.00
1:53 pm 13:53 Cloudy 41 5 33 0.6 73 73 E 7 11 30.14 1021 10 16 0.00 0.00
2:53 pm 14:53 Cloudy 41 5 34 1.1 76 76 E 6 9 30.10 1019 10 16 0.00 0.00
3:36 pm 15:36 Partly Cloudy 43 6.1 34 1.1 71 71 ESE 5 7 30.09 1019 10 16 0.00 0.00
3:43 pm 15:43 Mostly Cloudy 43 6.1 34 1.1 71 71 VRB 5 7 30.09 1019 10 16 0.00 0.00
3:53 pm 15:53 Mostly Cloudy 44 6.7 35 1.7 71 71 ESE 7 11 30.08 1019 10 16 0.00 0.00
4:53 pm 16:53 Mostly Cloudy 44 6.7 36 2.2 73 73 ENE 7 11 30.06 1018 10 16 0.00 0.00
5:53 pm 17:53 Mostly Cloudy 44 6.7 36 2.2 73 73 VRB 3 6 30.05 1018 10 16 0.00 0.00
6:53 pm 18:53 Cloudy 44 6.7 37 2.8 76 76 ESE 9 15 30.03 1017 10 16 0.00 0.00
7:53 pm 19:53 Cloudy 44 6.7 37 2.8 76 76 E 9 15 30.00 1016 10 16 0.00 0.00
8:53 pm 20:53 Cloudy 44 6.7 38 3.3 79 79 E 7 11 29.99 1016 10 16 0.00 0.00
9:53 pm 21:53 Cloudy 44 6.7 39 3.9 83 83 ESE 7 11 29.98 1015 10 16 0.00 0.00
10:53 pm 22:53 Cloudy 45 7.2 40 4.4 83 83 VRB 5 7 29.97 1015 10 16 0.00 0.00
11:53 pm 23:53 Cloudy with Light Rain 46 7.8 40 4.4 79 79 SE 3 6 29.92 1013 10 16 0.00 0.03

Powered by AerisWeather